Regional Weather Roundup
Issued by NWS

Home | Current Version | Previous Version | Text Only | Print | Product List | Glossary On
Versions: 1 2 3 4 5 6 7 8 9 10 11 12 13 14 15 16 17 18 19 20 21 22 23 24 25 26 27 28 29 30 31 32 33 34 35 36 37 38 39 40 41 42 43 44 45 46 47 48 49 50
000
ASUS43 KMPX 252001
RWRMN
WEATHER ROUNDUP FOR MINNESOTA
NATIONAL WEATHER SERVICE TWIN CITIES/CHANHASSEN MN
300 PM CDT FRI MAY 25 2018


NOTE: "FAIR" INDICATES FEW OR NO CLOUDS BELOW 12,000 FEET WITH NO
SIGNIFICANT WEATHER AND/OR OBSTRUCTIONS TO VISIBILITY. N/A MEANS
CURRENT SKY AND/OR WEATHER CONDITIONS ARE NOT AVAILABLE.

MNZ060>063-068>070-252100-
   Twin Cities Metro

CITY           SKY/WX    TMP DP  RH WIND       PRES   REMARKS
TWIN CITIES    FAIR      88  62  41 W10       29.71F
ST PAUL        FAIR      86  63  45 MISG      29.71F
CRYSTAL        FAIR      87  60  40 SW12G22   29.70F
BLAINE         PTSUNNY   90  61  37 SW8G16    29.71F
LAKEVILLE      FAIR      84  63  48 SW3       29.74F
EDEN PRAIRIE   FAIR      87  65  47 SW6G17    29.71F
SOUTH ST PAUL  FAIR      86  66  51 W10       29.73F
LAKE ELMO      FAIR      82  70  65 S9        29.75F
$$
MNZ001>005-007-008-013>017-022>024-027-028-252100-
   Northwest Minnesota

CITY           SKY/WX    TMP DP  RH WIND       PRES   REMARKS
BEMIDJI        FAIR      84  55  36 W10G20    29.67F
HALLOCK        FAIR      90  48  24 W7G17     29.58F
ROSEAU         FAIR      84  61  45 SW10      29.61F
WARROAD        FAIR      82  64  54 SW7       29.62F
THIEF RVR FALL FAIR      87  54  32 W16       29.64F
CROOKSTON      FAIR      91  48  22 W14G28    29.62F
FOSSTON        FAIR      88  48  25 W7G16     29.67F
DETROIT LAKES  FAIR      88  45  22 W12G18    29.70F
MOORHEAD       LGT RAIN  88  50  27 NW5G18    29.66F
PARK RAPIDS    FAIR      88  55  32 W15G22    29.69F
MAHNOMEN       FAIR      88  48  24 W9G28     29.67F
$$
MNZ006-009>011-018-025>026-252100-
   North Central Minnesota

CITY           SKY/WX    TMP DP  RH WIND       PRES   REMARKS
BAUDETTE       FAIR      85  56  37 W8G23     29.62F
FLAG ISLAND    FAIR      72  57  60 S7        29.60F
INTL FALLS     FAIR      84  58  40 W9        29.63F
WASKISH        FAIR      82  61  47 CALM      29.65F
BIG FORK       FAIR      84  57  39 SW9       29.66S
LONGVILLE      FAIR      86  55  35 SW13      29.69F
GRAND RAPIDS   FAIR      84  57  39 W9        29.70F
ORR            FAIR      84  52  32 W10G20    29.63F
COOK           PTSUNNY   82  55  39 W15       29.67F
WALKER         FAIR      85  55  35 SW16      29.68F
$$
MNZ012-019>021-037-252100-
   Northeast Minnesota

CITY           SKY/WX    TMP DP  RH WIND       PRES   REMARKS
DULUTH         FAIR      87  56  34 W18       29.68F
ELY            FAIR      82  52  34 W15       29.65F
HIBBING        FAIR      83  55  38 W12       29.67F
EVELETH        FAIR      82  55  39 W12G21    29.69F
DULUTH HARBOR  FAIR      84  64  51 SW16G22   29.64F
TWO HARBORS    FAIR      84  64  51 SW9G21    29.63F
SILVER BAY     LGT RAIN  79  66  65 SW7G16    29.64R
G MARAIS ARPRT LGT RAIN  73  57  56 SW6       29.68F
$$
MNZ029>031-032-039>041-046>048-054>057-064-252100-
   West Central Minnesota

CITY           SKY/WX    TMP DP  RH WIND       PRES   REMARKS
FERGUS FALLS   FAIR      88  52  29 NW16      29.63F
MORRIS         MOSUNNY   91  52  25 W20G26    29.69F
ALEXANDRIA     FAIR      80  60  50 SW9       29.74S
ELBOW LAKE     FAIR      88  53  30 NW15      29.70F
WADENA         FAIR      84  55  37 W9        29.70F
GLENWOOD       FAIR      70  63  78 S8          N/A
APPLETON       SUNNY     91  46  21 W17G23    29.70F
BENSON         MOSUNNY   90  48  24 NW22G29   29.71F
ORTONVILLE     MOSUNNY   88  54  31 W15       29.72S
MADISON        MOSUNNY   93  52  24 W18G25    29.72F HX  90
WILLMAR        FAIR      91  54  27 SW22G30   29.73F
$$
MNZ033>034-036-042>043-049>051-058-059-252100-
   Central Minnesota

CITY           SKY/WX    TMP DP  RH WIND       PRES   REMARKS
ST CLOUD       FAIR      92  52  25 W20G26    29.70F
SAUK CENTRE    FAIR      79  60  52 SW9       29.74S
PAYNESVILLE    FAIR      86  57  37 W10       29.73F
AITKIN         FAIR      84  54  34 SW6       29.67F
PINE RIVER     FAIR      82  55  39 W10G17    29.73F
BRAINERD       FAIR      88  54  31 W14G21    29.69F
STAPLES        FAIR      88  52  29 W10G22    29.70F
LONG PRAIRIE   FAIR      81  59  47 S10       29.73S
LITTLE FALLS   FAIR      86  55  35 W7G17     29.71F
LITCHFIELD     PTSUNNY   86  57  37 W5        29.72F
BUFFALO        FAIR      90  52  27 W9        29.71F
MAPLE LAKE     FAIR      90  57  32 W8        29.72F
HUTCHINSON     FAIR      87  65  47 SW8       29.73F
$$
MNZ037-044-045-052-053-252100-
   East Central Minnesota

CITY           SKY/WX    TMP DP  RH WIND       PRES   REMARKS
PRINCETON      FAIR      93  52  24 W14G21    29.69F HX  90
MORA           FAIR      86  55  35 W10       29.70F
CAMBRIDGE      FAIR      91  66  43 SW13      29.69F HX  94
RUSH CITY      FAIR      86  62  45 S9G16     29.70F
MOOSE LAKE     FAIR      86  54  32 SW12G18   29.67F
HINCKLEY       MOCLDY    86  63  45 SW8       29.69F
CLOQUET        FAIR      86  50  28 SW12G17   29.68F
MCGREGOR       FAIR      84  55  37 W9G20     29.69F
$$
MNZ071>073-080-081-089-090-097-098-252100-
   Southwest Minnesota

CITY           SKY/WX    TMP DP  RH WIND       PRES   REMARKS
MONTEVIDEO     MOSUNNY   95  48  20 NW14G21   29.71F HX  91
CANBY          SUNNY     89  53  29 NW13      29.74F
MARSHALL       MOSUNNY   86  58  38 NW15      29.73F
REDWOOD FALLS  MOSUNNY   89  59  36 VRB6      29.72F
OLIVIA         MOSUNNY   88  61  40 W8        29.73F
PIPESTONE      MOSUNNY   88  54  31 NW5       29.78F
WINDOM         MOSUNNY   91  55  29 SW5       29.76F
WORTHINGTON    MOSUNNY   89  53  29 SW8       29.79F
JACKSON        SUNNY     88  54  31 VRB3      29.78F THUNDER
TRACY          MOSUNNY   91  53  27 W9        29.74F
$$
MNZ065>067-074>077-082>085-091>093-252100-
   South Central Minnesota

CITY           SKY/WX    TMP DP  RH WIND       PRES   REMARKS
MANKATO        FAIR      88  57  34 W6        29.74F
NEW ULM        MOSUNNY   90  54  29 NW5       29.73F
ST JAMES       SUNNY     90  50  25 NW5       29.75F
FAIRMONT       SUNNY     89  58  34 W10       29.75F
GLENCOE        FAIR      88  60  39 W8        29.72F
FARIBAULT      FAIR      88  63  42 CALM      29.75F
WASECA         FAIR      90  55  31 NW9G18    29.75F
ALBERT LEA     FAIR      82  61  47 SW7       29.75F
$$
MNZ078>079-086>088-094>096-252100-
   Southeast Minnesota

CITY           SKY/WX    TMP DP  RH WIND       PRES   REMARKS
ROCHESTER      FAIR      88  62  41 SW14G26   29.74F
RED WING       FAIR      88  63  42 W8        29.71F
STANTON        FAIR      85  64  49 W10       29.72F
DODGE CENTER   FAIR      81  64  57 W10       29.78S
WINONA         FAIR      81  63  54 SW3       29.73F
AUSTIN         FAIR      88  63  42 W12G20    29.74F
PRESTON        FAIR      87  61  41 S10G22    29.76F
$$
ABBREVIATIONS USED IN REMARKS
   TC - TEMPERATURES IN CELSIUS
  WCI - WIND CHILL INDEX
   HX - HEAT INDEX
  VSB - VISIBILITY
$$



USA.gov is the U.S. government's official web portal to all federal, state and local government web resources and services.